Terminal Aerodrome Forecast
Issued by NWS

Home | Current Version | Previous Version | Text Only | Print | Product List | Glossary On
Versions: 1 2 3 4 5 6 7 8 9 10 11 12 13 14
310
FTUS44 KBMX 312201 AAA
TAFTOI
TAF AMD
KTOI 312201Z 3122/0118 VRB04KT P6SM VCTS SCT060CB BKN100
      TEMPO 3122/3123 VRB10G20KT 5SM -TSRA BKN050CB
     FM010000 00000KT P6SM SCT250
      TEMPO 0110/0113 5SM BR=

USA.gov is the U.S. government's official web portal to all federal, state and local government web resources and services.